Year,Month,Day,Hour,Minute,Value (Times are PST for temperature in C)
2019,07,07,00,00,13.00
2019,07,07,00,01,13.10
2019,07,07,00,02,13.10
2019,07,07,00,03,13.10
2019,07,07,00,04,13.10
2019,07,07,00,05,13.20
2019,07,07,00,06,13.20
2019,07,07,00,07,13.20
2019,07,07,00,08,13.20
2019,07,07,00,09,13.20
2019,07,07,00,10,13.30
2019,07,07,00,11,13.30
2019,07,07,00,12,13.30
2019,07,07,00,13,13.30
2019,07,07,00,14,13.30
2019,07,07,00,15,13.30
2019,07,07,00,16,13.30
2019,07,07,00,17,13.40
2019,07,07,00,18,13.40
2019,07,07,00,19,13.40
2019,07,07,00,20,13.40
2019,07,07,00,21,13.40
2019,07,07,00,22,13.50
2019,07,07,00,23,13.50
2019,07,07,00,24,13.50
2019,07,07,00,25,13.50
2019,07,07,00,26,13.50
2019,07,07,00,27,13.60
2019,07,07,00,28,13.60
2019,07,07,00,29,13.60
2019,07,07,00,30,13.60
2019,07,07,00,31,13.60
2019,07,07,00,32,13.60
2019,07,07,00,33,13.60
2019,07,07,00,34,13.60
2019,07,07,00,35,13.60
2019,07,07,00,36,13.60
2019,07,07,00,37,13.60
2019,07,07,00,38,13.60
2019,07,07,00,39,13.60
2019,07,07,00,40,13.60
2019,07,07,00,41,13.60
2019,07,07,00,42,13.60
2019,07,07,00,43,13.60
2019,07,07,00,44,13.60
2019,07,07,00,45,13.60
2019,07,07,00,46,13.50
2019,07,07,00,47,13.50
2019,07,07,00,48,13.50
2019,07,07,00,49,13.50
2019,07,07,00,50,13.50
2019,07,07,00,51,13.40
2019,07,07,00,52,13.40
2019,07,07,00,53,13.40
2019,07,07,00,54,13.40
2019,07,07,00,55,13.40
2019,07,07,00,56,13.40
2019,07,07,00,57,13.40
2019,07,07,00,58,13.30
2019,07,07,00,59,13.30
2019,07,07,01,00,13.30
2019,07,07,01,01,13.30
2019,07,07,01,02,13.30
2019,07,07,01,03,13.30
2019,07,07,01,04,13.30
2019,07,07,01,05,13.20
2019,07,07,01,06,13.20
2019,07,07,01,07,13.20
2019,07,07,01,08,13.20
2019,07,07,01,09,13.20
2019,07,07,01,10,13.20
2019,07,07,01,11,13.20
2019,07,07,01,12,13.10
2019,07,07,01,13,13.10
2019,07,07,01,14,13.10
2019,07,07,01,15,13.10
2019,07,07,01,16,13.10
2019,07,07,01,17,13.00
2019,07,07,01,18,13.00
2019,07,07,01,19,13.00
2019,07,07,01,20,13.00
2019,07,07,01,21,12.90
2019,07,07,01,22,12.90
2019,07,07,01,23,12.90
2019,07,07,01,24,12.90
2019,07,07,01,25,12.90
2019,07,07,01,26,12.90
2019,07,07,01,27,12.90
2019,07,07,01,28,12.90
2019,07,07,01,29,12.80
2019,07,07,01,30,12.80
2019,07,07,01,31,12.80
2019,07,07,01,32,12.80
2019,07,07,01,33,12.80
2019,07,07,01,34,12.80
2019,07,07,01,35,12.80
2019,07,07,01,36,12.80
2019,07,07,01,37,12.80
2019,07,07,01,38,12.80
2019,07,07,01,39,12.80
2019,07,07,01,40,12.70
2019,07,07,01,41,12.70
2019,07,07,01,42,12.70
2019,07,07,01,43,12.70
2019,07,07,01,44,12.70
2019,07,07,01,45,12.70
2019,07,07,01,46,12.70
2019,07,07,01,47,12.70
2019,07,07,01,48,12.70
2019,07,07,01,49,12.70
2019,07,07,01,50,12.70
2019,07,07,01,51,12.70
2019,07,07,01,52,12.70
2019,07,07,01,53,12.70
2019,07,07,01,54,12.70
2019,07,07,01,55,12.70
2019,07,07,01,56,12.70
2019,07,07,01,57,12.70
2019,07,07,01,58,12.70
2019,07,07,01,59,12.70
2019,07,07,02,00,12.70
2019,07,07,02,01,12.70
2019,07,07,02,02,12.80
2019,07,07,02,03,12.80
2019,07,07,02,04,12.80
2019,07,07,02,05,12.80
2019,07,07,02,06,12.80
2019,07,07,02,07,12.80
2019,07,07,02,08,12.80
2019,07,07,02,09,12.80
2019,07,07,02,10,12.80
2019,07,07,02,11,12.80
2019,07,07,02,12,12.80
2019,07,07,02,13,12.80
2019,07,07,02,14,12.80
2019,07,07,02,15,12.80
2019,07,07,02,16,12.80
2019,07,07,02,17,12.80
2019,07,07,02,18,12.80
2019,07,07,02,19,12.80
2019,07,07,02,20,12.80
2019,07,07,02,21,12.80
2019,07,07,02,22,12.80
2019,07,07,02,23,12.80
2019,07,07,02,24,12.70
2019,07,07,02,25,12.70
2019,07,07,02,26,12.70
2019,07,07,02,27,12.70
2019,07,07,02,28,12.70
2019,07,07,02,29,12.70
2019,07,07,02,30,12.60
2019,07,07,02,31,12.60
2019,07,07,02,32,12.60
2019,07,07,02,33,12.60
2019,07,07,02,34,12.60
2019,07,07,02,35,12.50
2019,07,07,02,36,12.50
2019,07,07,02,37,12.50
2019,07,07,02,38,12.40
2019,07,07,02,39,12.40
2019,07,07,02,40,12.40
2019,07,07,02,41,12.40
2019,07,07,02,42,12.30
2019,07,07,02,43,12.30
2019,07,07,02,44,12.30
2019,07,07,02,45,12.30
2019,07,07,02,46,12.30
2019,07,07,02,47,12.30
2019,07,07,02,48,12.20
2019,07,07,02,49,12.20
2019,07,07,02,50,12.20
2019,07,07,02,51,12.20
2019,07,07,02,52,12.20
2019,07,07,02,53,12.10
2019,07,07,02,54,12.10
2019,07,07,02,55,12.10
2019,07,07,02,56,12.10
2019,07,07,02,57,12.10
2019,07,07,02,58,12.10
2019,07,07,02,59,12.10
2019,07,07,03,00,12.10
2019,07,07,03,01,12.10
2019,07,07,03,02,12.10
2019,07,07,03,03,12.00
2019,07,07,03,04,12.00
2019,07,07,03,05,12.00
2019,07,07,03,06,12.00
2019,07,07,03,07,12.00
2019,07,07,03,08,12.00
2019,07,07,03,09,12.00
2019,07,07,03,10,12.00
2019,07,07,03,11,12.00
2019,07,07,03,12,12.00
2019,07,07,03,13,12.00
2019,07,07,03,14,12.00
2019,07,07,03,15,12.00
2019,07,07,03,16,12.00
2019,07,07,03,17,12.00
2019,07,07,03,18,12.00
2019,07,07,03,19,12.00
2019,07,07,03,20,12.00
2019,07,07,03,21,12.00
2019,07,07,03,22,12.00
2019,07,07,03,23,12.00
2019,07,07,03,24,12.00
2019,07,07,03,25,12.00
2019,07,07,03,26,12.00
2019,07,07,03,27,12.00
2019,07,07,03,28,12.00
2019,07,07,03,29,12.00
2019,07,07,03,30,12.00
2019,07,07,03,31,12.00
2019,07,07,03,32,12.10
2019,07,07,03,33,12.00
2019,07,07,03,34,12.10
2019,07,07,03,35,12.10
2019,07,07,03,36,12.10
2019,07,07,03,37,12.10
2019,07,07,03,38,12.10
2019,07,07,03,39,12.10
2019,07,07,03,40,12.20
2019,07,07,03,41,12.20
2019,07,07,03,42,12.20
2019,07,07,03,43,12.20
2019,07,07,03,44,12.20
2019,07,07,03,45,12.20
2019,07,07,03,46,12.30
2019,07,07,03,47,12.30
2019,07,07,03,48,12.30
2019,07,07,03,49,12.30
2019,07,07,03,50,12.30
2019,07,07,03,51,12.40
2019,07,07,03,52,12.40
2019,07,07,03,53,12.40
2019,07,07,03,54,12.40
2019,07,07,03,55,12.40
2019,07,07,03,56,12.40
2019,07,07,03,57,12.50
2019,07,07,03,58,12.50
2019,07,07,03,59,12.50
2019,07,07,04,00,12.50
2019,07,07,04,01,12.50
2019,07,07,04,02,12.50
2019,07,07,04,03,12.50
2019,07,07,04,04,12.50
2019,07,07,04,05,12.50
2019,07,07,04,06,12.50
2019,07,07,04,07,12.50
2019,07,07,04,08,12.50
2019,07,07,04,09,12.60
2019,07,07,04,10,12.60
2019,07,07,04,11,12.60
2019,07,07,04,12,12.60
2019,07,07,04,13,12.60
2019,07,07,04,14,12.60
2019,07,07,04,15,12.60
2019,07,07,04,16,12.60
2019,07,07,04,17,12.60
2019,07,07,04,18,12.60
2019,07,07,04,19,12.60
2019,07,07,04,20,12.60
2019,07,07,04,21,12.60
2019,07,07,04,22,12.60
2019,07,07,04,23,12.60
2019,07,07,04,24,12.60
2019,07,07,04,25,12.60
2019,07,07,04,26,12.60
2019,07,07,04,27,12.60
2019,07,07,04,28,12.60
2019,07,07,04,29,12.60
2019,07,07,04,30,12.60
2019,07,07,04,31,12.70
2019,07,07,04,32,12.60
2019,07,07,04,33,12.70
2019,07,07,04,34,12.70
2019,07,07,04,35,12.70
2019,07,07,04,36,12.70
2019,07,07,04,37,12.70
2019,07,07,04,38,12.70
2019,07,07,04,39,12.60
2019,07,07,04,40,12.60
2019,07,07,04,41,12.60
2019,07,07,04,42,12.70
2019,07,07,04,43,12.70
2019,07,07,04,44,12.60
2019,07,07,04,45,12.60
2019,07,07,04,46,12.70
2019,07,07,04,47,12.70
2019,07,07,04,48,12.70
2019,07,07,04,49,12.70
2019,07,07,04,50,12.60
2019,07,07,04,51,12.60
2019,07,07,04,52,12.60
2019,07,07,04,53,12.60
2019,07,07,04,54,12.60
2019,07,07,04,55,12.70
2019,07,07,04,56,12.60
2019,07,07,04,57,12.60
2019,07,07,04,58,12.70
2019,07,07,04,59,12.60
2019,07,07,05,00,12.60
2019,07,07,05,01,12.60
2019,07,07,05,02,12.70
2019,07,07,05,03,12.60
2019,07,07,05,04,12.60
2019,07,07,05,05,12.60
2019,07,07,05,06,12.70
2019,07,07,05,07,12.70
2019,07,07,05,08,12.70
2019,07,07,05,09,12.70
2019,07,07,05,10,12.70
2019,07,07,05,11,12.60
2019,07,07,05,12,12.60
2019,07,07,05,13,12.70
2019,07,07,05,14,12.70
2019,07,07,05,15,12.70
2019,07,07,05,16,12.70
2019,07,07,05,17,12.70
2019,07,07,05,18,12.70
2019,07,07,05,19,12.70
2019,07,07,05,20,12.70
2019,07,07,05,21,12.70
2019,07,07,05,22,12.70
2019,07,07,05,23,12.70
2019,07,07,05,24,12.70
2019,07,07,05,25,12.80
2019,07,07,05,26,12.80
2019,07,07,05,27,12.80
2019,07,07,05,28,12.80
2019,07,07,05,29,12.80
2019,07,07,05,30,12.80
2019,07,07,05,31,12.80
2019,07,07,05,32,12.90
2019,07,07,05,33,12.90
2019,07,07,05,34,12.90
2019,07,07,05,35,12.90
2019,07,07,05,36,12.90
2019,07,07,05,37,12.90
2019,07,07,05,38,12.90
2019,07,07,05,39,12.90
2019,07,07,05,40,12.90
2019,07,07,05,41,12.90
2019,07,07,05,42,12.90
2019,07,07,05,43,12.90
2019,07,07,05,44,12.90
2019,07,07,05,45,12.90
2019,07,07,05,46,12.90
2019,07,07,05,47,12.90
2019,07,07,05,48,12.90
2019,07,07,05,49,12.90
2019,07,07,05,50,12.90
2019,07,07,05,51,12.90
2019,07,07,05,52,12.90
2019,07,07,05,53,12.90
2019,07,07,05,54,12.90
2019,07,07,05,55,13.00
2019,07,07,05,56,13.00
2019,07,07,05,57,13.00
2019,07,07,05,58,13.00
2019,07,07,05,59,13.00
2019,07,07,06,00,13.00
2019,07,07,06,01,13.00
2019,07,07,06,02,13.00
2019,07,07,06,03,13.00
2019,07,07,06,04,13.00
2019,07,07,06,05,13.00
2019,07,07,06,06,13.00
2019,07,07,06,07,13.00
2019,07,07,06,08,13.00
2019,07,07,06,09,13.00
2019,07,07,06,10,13.00
2019,07,07,06,11,13.10
2019,07,07,06,12,13.10
2019,07,07,06,13,13.10
2019,07,07,06,14,13.10
2019,07,07,06,15,13.10
2019,07,07,06,16,13.10
2019,07,07,06,17,13.10
2019,07,07,06,18,13.10
2019,07,07,06,19,13.10
2019,07,07,06,20,13.10
2019,07,07,06,21,13.10
2019,07,07,06,22,13.10
2019,07,07,06,23,13.10
2019,07,07,06,24,13.10
2019,07,07,06,25,13.10
2019,07,07,06,26,13.20
2019,07,07,06,27,13.20
2019,07,07,06,28,13.20
2019,07,07,06,29,13.20
2019,07,07,06,30,13.20
2019,07,07,06,31,13.20
2019,07,07,06,32,13.20
2019,07,07,06,33,13.20
2019,07,07,06,34,13.30
2019,07,07,06,35,13.30
2019,07,07,06,36,13.30
2019,07,07,06,37,13.30
2019,07,07,06,38,13.30
2019,07,07,06,39,13.30
2019,07,07,06,40,13.30
2019,07,07,06,41,13.30
2019,07,07,06,42,13.30
2019,07,07,06,43,13.40
2019,07,07,06,44,13.40
2019,07,07,06,45,13.40
2019,07,07,06,46,13.40
2019,07,07,06,47,13.40
2019,07,07,06,48,13.50
2019,07,07,06,49,13.50
2019,07,07,06,50,13.50
2019,07,07,06,51,13.50
2019,07,07,06,52,13.50
2019,07,07,06,53,13.50
2019,07,07,06,54,13.60
2019,07,07,06,55,13.60
2019,07,07,06,56,13.60
2019,07,07,06,57,13.60
2019,07,07,06,58,13.60
2019,07,07,06,59,13.60
2019,07,07,07,00,13.60
2019,07,07,07,01,13.60
2019,07,07,07,02,13.70
2019,07,07,07,03,13.70
2019,07,07,07,04,13.70
2019,07,07,07,05,13.70
2019,07,07,07,06,13.70
2019,07,07,07,07,13.70
2019,07,07,07,08,13.70
2019,07,07,07,09,13.80
2019,07,07,07,10,13.80
2019,07,07,07,11,13.80
2019,07,07,07,12,13.80
2019,07,07,07,13,13.80
2019,07,07,07,14,13.90
2019,07,07,07,15,13.90
2019,07,07,07,16,13.90
2019,07,07,07,17,13.90
2019,07,07,07,18,14.00
2019,07,07,07,19,14.00
2019,07,07,07,20,14.10
2019,07,07,07,21,14.10
2019,07,07,07,22,14.10
2019,07,07,07,23,14.10
2019,07,07,07,24,14.20
2019,07,07,07,25,14.20
2019,07,07,07,26,14.30
2019,07,07,07,27,14.30
2019,07,07,07,28,14.30
2019,07,07,07,29,14.40
2019,07,07,07,30,14.40
2019,07,07,07,31,14.50
2019,07,07,07,32,14.50
2019,07,07,07,33,14.60
2019,07,07,07,34,14.60
2019,07,07,07,35,14.70
2019,07,07,07,36,14.70
2019,07,07,07,37,14.80
2019,07,07,07,38,14.80
2019,07,07,07,39,14.90
2019,07,07,07,40,14.90
2019,07,07,07,41,15.00
2019,07,07,07,42,15.00
2019,07,07,07,43,15.00
2019,07,07,07,44,15.10
2019,07,07,07,45,15.10
2019,07,07,07,46,15.20
2019,07,07,07,47,15.20
2019,07,07,07,48,15.20
2019,07,07,07,49,15.20
2019,07,07,07,50,15.30
2019,07,07,07,51,15.30
2019,07,07,07,52,15.30
2019,07,07,07,53,15.30
2019,07,07,07,54,15.30
2019,07,07,07,55,15.30
2019,07,07,07,56,15.40
2019,07,07,07,57,15.40
2019,07,07,07,58,15.40
2019,07,07,07,59,15.40
2019,07,07,08,00,15.40
2019,07,07,08,01,15.40
2019,07,07,08,02,15.40
2019,07,07,08,03,15.40
2019,07,07,08,04,15.40
2019,07,07,08,05,15.40
2019,07,07,08,06,15.40
2019,07,07,08,07,15.40
2019,07,07,08,08,15.40
2019,07,07,08,09,15.40
2019,07,07,08,10,15.40
2019,07,07,08,11,15.40
2019,07,07,08,12,15.40
2019,07,07,08,13,15.40
2019,07,07,08,14,15.30
2019,07,07,08,15,15.30
2019,07,07,08,16,15.40
2019,07,07,08,17,15.40
2019,07,07,08,18,15.40
2019,07,07,08,19,15.40
2019,07,07,08,20,15.40
2019,07,07,08,21,15.50
2019,07,07,08,22,15.60
2019,07,07,08,23,15.60
2019,07,07,08,24,15.70
2019,07,07,08,25,15.70
2019,07,07,08,26,15.80
2019,07,07,08,27,15.90
2019,07,07,08,28,15.90
2019,07,07,08,29,16.00
2019,07,07,08,30,16.00
2019,07,07,08,31,16.10
2019,07,07,08,32,16.20
2019,07,07,08,33,16.20
2019,07,07,08,34,16.20
2019,07,07,08,35,16.30
2019,07,07,08,36,16.30
2019,07,07,08,37,16.40
2019,07,07,08,38,16.40
2019,07,07,08,39,16.40
2019,07,07,08,40,16.50
2019,07,07,08,41,16.50
2019,07,07,08,42,16.50
2019,07,07,08,43,16.50
2019,07,07,08,44,16.60
2019,07,07,08,45,16.60
2019,07,07,08,46,16.60
2019,07,07,08,47,16.60
2019,07,07,08,48,16.60
2019,07,07,08,49,16.60
2019,07,07,08,50,16.60
2019,07,07,08,51,16.60
2019,07,07,08,52,16.60
2019,07,07,08,53,16.50
2019,07,07,08,54,16.50
2019,07,07,08,55,16.50
2019,07,07,08,56,16.40
2019,07,07,08,57,16.40
2019,07,07,08,58,16.40
2019,07,07,08,59,16.40
2019,07,07,09,00,16.40
2019,07,07,09,01,16.40
2019,07,07,09,02,16.40
2019,07,07,09,03,16.40
2019,07,07,09,04,16.40
2019,07,07,09,05,16.40
2019,07,07,09,06,16.50
2019,07,07,09,07,16.50
2019,07,07,09,08,16.50
2019,07,07,09,09,16.60
2019,07,07,09,10,16.60
2019,07,07,09,11,16.70
2019,07,07,09,12,16.70
2019,07,07,09,13,16.70
2019,07,07,09,14,16.80
2019,07,07,09,15,16.80
2019,07,07,09,16,16.80
2019,07,07,09,17,16.90
2019,07,07,09,18,16.90
2019,07,07,09,19,16.90
2019,07,07,09,20,17.00
2019,07,07,09,21,17.00
2019,07,07,09,22,17.00
2019,07,07,09,23,17.10
2019,07,07,09,24,17.10
2019,07,07,09,25,17.10
2019,07,07,09,26,17.10
2019,07,07,09,27,17.10
2019,07,07,09,28,17.20
2019,07,07,09,29,17.20
2019,07,07,09,30,17.30
2019,07,07,09,31,17.40
2019,07,07,09,32,17.40
2019,07,07,09,33,17.50
2019,07,07,09,34,17.50
2019,07,07,09,35,17.60
2019,07,07,09,36,17.60
2019,07,07,09,37,17.70
2019,07,07,09,38,17.60
2019,07,07,09,39,17.60
2019,07,07,09,40,17.60
2019,07,07,09,41,17.60
2019,07,07,09,42,17.50
2019,07,07,09,43,17.50
2019,07,07,09,44,17.50
2019,07,07,09,45,17.50
2019,07,07,09,46,17.50
2019,07,07,09,47,17.50
2019,07,07,09,48,17.50
2019,07,07,09,49,17.60
2019,07,07,09,50,17.60
2019,07,07,09,51,17.70
2019,07,07,09,52,17.70
2019,07,07,09,53,17.70
2019,07,07,09,54,17.80
2019,07,07,09,55,17.80
2019,07,07,09,56,17.90
2019,07,07,09,57,17.90
2019,07,07,09,58,17.90
2019,07,07,09,59,17.90
2019,07,07,10,00,17.90
2019,07,07,10,01,17.90
2019,07,07,10,02,17.90
2019,07,07,10,03,18.00
2019,07,07,10,04,18.00
2019,07,07,10,05,18.00
2019,07,07,10,06,17.90
2019,07,07,10,07,17.90
2019,07,07,10,08,17.80
2019,07,07,10,09,17.80
2019,07,07,10,10,17.70
2019,07,07,10,11,17.70
2019,07,07,10,12,17.60
2019,07,07,10,13,17.60
2019,07,07,10,14,17.50
2019,07,07,10,15,17.40
2019,07,07,10,16,17.40
2019,07,07,10,17,17.30
2019,07,07,10,18,17.30
2019,07,07,10,19,17.30
2019,07,07,10,20,17.20
2019,07,07,10,21,17.20
2019,07,07,10,22,17.20
2019,07,07,10,23,17.10
2019,07,07,10,24,17.10
2019,07,07,10,25,17.10
2019,07,07,10,26,17.00
2019,07,07,10,27,17.00
2019,07,07,10,28,16.90
2019,07,07,10,29,16.90
2019,07,07,10,30,16.90
2019,07,07,10,31,16.90
2019,07,07,10,32,16.90
2019,07,07,10,33,16.90
2019,07,07,10,34,16.90
2019,07,07,10,35,16.90
2019,07,07,10,36,16.90
2019,07,07,10,37,16.80
2019,07,07,10,38,16.80
2019,07,07,10,39,16.80
2019,07,07,10,40,16.80
2019,07,07,10,41,16.80
2019,07,07,10,42,16.80
2019,07,07,10,43,16.80
2019,07,07,10,44,16.80
2019,07,07,10,45,16.80
2019,07,07,10,46,16.70
2019,07,07,10,47,16.70
2019,07,07,10,48,16.70
2019,07,07,10,49,16.70
2019,07,07,10,50,16.70
2019,07,07,10,51,16.70
2019,07,07,10,52,16.70
2019,07,07,10,53,16.60
2019,07,07,10,54,16.60
2019,07,07,10,55,16.60
2019,07,07,10,56,16.60
2019,07,07,10,57,16.60
2019,07,07,10,58,16.60
2019,07,07,10,59,16.60
2019,07,07,11,00,16.60
2019,07,07,11,01,16.60
2019,07,07,11,02,16.60
2019,07,07,11,03,16.60
2019,07,07,11,04,16.70
2019,07,07,11,05,16.60
2019,07,07,11,06,16.70
2019,07,07,11,07,16.70
2019,07,07,11,08,16.70
2019,07,07,11,09,16.70
2019,07,07,11,10,16.70
2019,07,07,11,11,16.70
2019,07,07,11,12,16.70
2019,07,07,11,13,16.70
2019,07,07,11,14,16.70
2019,07,07,11,15,16.70
2019,07,07,11,16,16.70
2019,07,07,11,17,16.70
2019,07,07,11,18,16.70
2019,07,07,11,19,16.80
2019,07,07,11,20,16.80
2019,07,07,11,21,16.80
2019,07,07,11,22,16.80
2019,07,07,11,23,16.80
2019,07,07,11,24,16.80
2019,07,07,11,25,16.80
2019,07,07,11,26,16.80
2019,07,07,11,27,16.80
2019,07,07,11,28,16.80
2019,07,07,11,29,16.90
2019,07,07,11,30,16.90
2019,07,07,11,31,16.90
2019,07,07,11,32,16.90
2019,07,07,11,33,16.90
2019,07,07,11,34,16.90
2019,07,07,11,35,16.90
2019,07,07,11,36,16.90
2019,07,07,11,37,16.90
2019,07,07,11,38,17.00
2019,07,07,11,39,17.00
2019,07,07,11,40,17.00
2019,07,07,11,41,17.00
2019,07,07,11,42,17.00
2019,07,07,11,43,17.00
2019,07,07,11,44,17.00
2019,07,07,11,45,17.00
2019,07,07,11,46,17.00
2019,07,07,11,47,17.00
2019,07,07,11,48,17.00
2019,07,07,11,49,17.00
2019,07,07,11,50,17.00
2019,07,07,11,51,17.00
2019,07,07,11,52,17.00
2019,07,07,11,53,17.00
2019,07,07,11,54,17.00
2019,07,07,11,55,16.90
2019,07,07,11,56,16.90
2019,07,07,11,57,16.90
2019,07,07,11,58,16.80
2019,07,07,11,59,16.80
2019,07,07,12,00,16.80
2019,07,07,12,01,16.70
2019,07,07,12,02,16.70
2019,07,07,12,03,16.60
2019,07,07,12,04,16.60
2019,07,07,12,05,16.60
2019,07,07,12,06,16.50
2019,07,07,12,07,16.50
2019,07,07,12,08,16.50
2019,07,07,12,09,16.50
2019,07,07,12,10,16.50
2019,07,07,12,11,16.40
2019,07,07,12,12,16.40
2019,07,07,12,13,16.40
2019,07,07,12,14,16.40
2019,07,07,12,15,16.40
2019,07,07,12,16,16.40
2019,07,07,12,17,16.40
2019,07,07,12,18,16.40
2019,07,07,12,19,16.40
2019,07,07,12,20,16.40
2019,07,07,12,21,16.40
2019,07,07,12,22,16.40
2019,07,07,12,23,16.40
2019,07,07,12,24,16.40
2019,07,07,12,25,16.40
2019,07,07,12,26,16.40
2019,07,07,12,27,16.40
2019,07,07,12,28,16.40
2019,07,07,12,29,16.40
2019,07,07,12,30,16.30
2019,07,07,12,31,16.30
2019,07,07,12,32,16.30
2019,07,07,12,33,16.30
2019,07,07,12,34,16.30
2019,07,07,12,35,16.30
2019,07,07,12,36,16.30
2019,07,07,12,37,16.30
2019,07,07,12,38,16.30
2019,07,07,12,39,16.30
2019,07,07,12,40,16.30
2019,07,07,12,41,16.30
2019,07,07,12,42,16.30
2019,07,07,12,43,16.30
2019,07,07,12,44,16.30
2019,07,07,12,45,16.30
2019,07,07,12,46,16.30
2019,07,07,12,47,16.30
2019,07,07,12,48,16.30
2019,07,07,12,49,16.30
2019,07,07,12,50,16.30
2019,07,07,12,51,16.30
2019,07,07,12,52,16.20
2019,07,07,12,53,16.20
2019,07,07,12,54,16.20
2019,07,07,12,55,16.20
2019,07,07,12,56,16.20
2019,07,07,12,57,16.20
2019,07,07,12,58,16.20
2019,07,07,12,59,16.20
2019,07,07,13,00,16.10
2019,07,07,13,01,16.10
2019,07,07,13,02,16.10
2019,07,07,13,03,16.10
2019,07,07,13,04,16.10
2019,07,07,13,05,16.10
2019,07,07,13,06,16.20
2019,07,07,13,07,16.20
2019,07,07,13,08,16.20
2019,07,07,13,09,16.20
2019,07,07,13,10,16.20
2019,07,07,13,11,16.20
2019,07,07,13,12,16.20
2019,07,07,13,13,16.20
2019,07,07,13,14,16.20
2019,07,07,13,15,16.20
2019,07,07,13,16,16.20
2019,07,07,13,17,16.30
2019,07,07,13,18,16.30
2019,07,07,13,19,16.30
2019,07,07,13,20,16.30
2019,07,07,13,21,16.30
2019,07,07,13,22,16.30
2019,07,07,13,23,16.30
2019,07,07,13,24,16.30
2019,07,07,13,25,16.30
2019,07,07,13,26,16.30
2019,07,07,13,27,16.30
2019,07,07,13,28,16.40
2019,07,07,13,29,16.40
2019,07,07,13,30,16.40
2019,07,07,13,31,16.40
2019,07,07,13,32,16.40
2019,07,07,13,33,16.40
2019,07,07,13,34,16.40
2019,07,07,13,35,16.40
2019,07,07,13,36,16.40
2019,07,07,13,37,16.40
2019,07,07,13,38,16.40
2019,07,07,13,39,16.40
2019,07,07,13,40,16.40
2019,07,07,13,41,16.40
2019,07,07,13,42,16.50
2019,07,07,13,43,16.50
2019,07,07,13,44,16.50
2019,07,07,13,45,16.50
2019,07,07,13,46,16.50
2019,07,07,13,47,16.50
2019,07,07,13,48,16.50
2019,07,07,13,49,16.50
2019,07,07,13,50,16.40
2019,07,07,13,51,16.40
2019,07,07,13,52,16.40
2019,07,07,13,53,16.30
2019,07,07,13,54,16.30
2019,07,07,13,55,16.20
2019,07,07,13,56,16.20
2019,07,07,13,57,16.10
2019,07,07,13,58,16.10
2019,07,07,13,59,16.10
2019,07,07,14,00,16.10
2019,07,07,14,01,16.10
2019,07,07,14,02,16.10
2019,07,07,14,03,16.10
2019,07,07,14,04,16.10
2019,07,07,14,05,16.10
2019,07,07,14,06,16.10
2019,07,07,14,07,16.10
2019,07,07,14,08,16.10
2019,07,07,14,09,16.10
2019,07,07,14,10,16.10
2019,07,07,14,11,16.10
2019,07,07,14,12,16.10
2019,07,07,14,13,16.10
2019,07,07,14,14,16.00
2019,07,07,14,15,16.00
2019,07,07,14,16,16.00
2019,07,07,14,17,16.00
2019,07,07,14,18,16.00
2019,07,07,14,19,16.00
2019,07,07,14,20,16.00
2019,07,07,14,21,16.00
2019,07,07,14,22,16.00
2019,07,07,14,23,16.00
2019,07,07,14,24,16.00
2019,07,07,14,25,16.00
2019,07,07,14,26,15.90
2019,07,07,14,27,15.90
2019,07,07,14,28,15.80
2019,07,07,14,29,15.80
2019,07,07,14,30,15.70
2019,07,07,14,31,15.60
2019,07,07,14,32,15.60
2019,07,07,14,33,15.60
2019,07,07,14,34,15.50
2019,07,07,14,35,15.40
2019,07,07,14,36,15.40
2019,07,07,14,37,15.40
2019,07,07,14,38,15.40
2019,07,07,14,39,15.40
2019,07,07,14,40,15.30
2019,07,07,14,41,15.30
2019,07,07,14,42,15.30
2019,07,07,14,43,15.30
2019,07,07,14,44,15.20
2019,07,07,14,45,15.20
2019,07,07,14,46,15.20
2019,07,07,14,47,15.20
2019,07,07,14,48,15.20
2019,07,07,14,49,15.10
2019,07,07,14,50,15.10
2019,07,07,14,51,15.10
2019,07,07,14,52,15.10
2019,07,07,14,53,15.00
2019,07,07,14,54,15.00
2019,07,07,14,55,15.00
2019,07,07,14,56,15.00
2019,07,07,14,57,14.90
2019,07,07,14,58,14.90
2019,07,07,14,59,14.90
2019,07,07,15,00,14.90
2019,07,07,15,01,14.90
2019,07,07,15,02,14.90
2019,07,07,15,03,14.90
2019,07,07,15,04,14.90
2019,07,07,15,05,14.90
2019,07,07,15,06,14.80
2019,07,07,15,07,14.80
2019,07,07,15,08,14.90
2019,07,07,15,09,14.90
2019,07,07,15,10,14.90
2019,07,07,15,11,14.90
2019,07,07,15,12,14.90
2019,07,07,15,13,14.80
2019,07,07,15,14,14.80
2019,07,07,15,15,14.80
2019,07,07,15,16,14.80
2019,07,07,15,17,14.80
2019,07,07,15,18,14.80
2019,07,07,15,19,14.80
2019,07,07,15,20,14.80
2019,07,07,15,21,14.80
2019,07,07,15,22,14.80
2019,07,07,15,23,14.80
2019,07,07,15,24,14.80
2019,07,07,15,25,14.80
2019,07,07,15,26,14.80
2019,07,07,15,27,14.80
2019,07,07,15,28,14.80
2019,07,07,15,29,14.80
2019,07,07,15,30,14.80
2019,07,07,15,31,14.80
2019,07,07,15,32,14.80
2019,07,07,15,33,14.80
2019,07,07,15,34,14.80
2019,07,07,15,35,14.80
2019,07,07,15,36,14.80
2019,07,07,15,37,14.70
2019,07,07,15,38,14.70
2019,07,07,15,39,14.80
2019,07,07,15,40,14.80
2019,07,07,15,41,14.80
2019,07,07,15,42,14.80
2019,07,07,15,43,14.80
2019,07,07,15,44,14.80
2019,07,07,15,45,14.80
2019,07,07,15,46,14.80
2019,07,07,15,47,14.80
2019,07,07,15,48,14.80
2019,07,07,15,49,14.80
2019,07,07,15,50,14.80
2019,07,07,15,51,14.80
2019,07,07,15,52,14.80
2019,07,07,15,53,14.80
2019,07,07,15,54,14.80
2019,07,07,15,55,14.80
2019,07,07,15,56,14.80
2019,07,07,15,57,14.80
2019,07,07,15,58,14.80
2019,07,07,15,59,14.80
2019,07,07,16,00,14.80
2019,07,07,16,01,14.80
2019,07,07,16,02,14.70
2019,07,07,16,03,14.70
2019,07,07,16,04,14.70
2019,07,07,16,05,14.70
2019,07,07,16,06,14.70
2019,07,07,16,07,14.70
2019,07,07,16,08,14.70
2019,07,07,16,09,14.80
2019,07,07,16,10,14.80
2019,07,07,16,11,14.80
2019,07,07,16,12,14.80
2019,07,07,16,13,14.80
2019,07,07,16,14,14.80
2019,07,07,16,15,14.80
2019,07,07,16,16,14.80
2019,07,07,16,17,14.80
2019,07,07,16,18,14.80
2019,07,07,16,19,14.80
2019,07,07,16,20,14.80
2019,07,07,16,21,14.80
2019,07,07,16,22,14.80
2019,07,07,16,23,14.80
2019,07,07,16,24,14.80
2019,07,07,16,25,14.80
2019,07,07,16,26,14.80
2019,07,07,16,27,14.80
2019,07,07,16,28,14.80
2019,07,07,16,29,14.90
2019,07,07,16,30,14.90
2019,07,07,16,31,14.90
2019,07,07,16,32,14.90
2019,07,07,16,33,14.90
2019,07,07,16,34,14.90
2019,07,07,16,35,14.90
2019,07,07,16,36,14.90
2019,07,07,16,37,14.90
2019,07,07,16,38,14.90
2019,07,07,16,39,14.90
2019,07,07,16,40,14.90
2019,07,07,16,41,14.90
2019,07,07,16,42,14.90
2019,07,07,16,43,14.90
2019,07,07,16,44,14.90
2019,07,07,16,45,14.90
2019,07,07,16,46,15.00
2019,07,07,16,47,15.00
2019,07,07,16,48,15.00
2019,07,07,16,49,15.00
2019,07,07,16,50,15.10
2019,07,07,16,51,15.10
2019,07,07,16,52,15.10
2019,07,07,16,53,15.10
2019,07,07,16,54,15.10
2019,07,07,16,55,15.10
2019,07,07,16,56,15.20
2019,07,07,16,57,15.20
2019,07,07,16,58,15.20
2019,07,07,16,59,15.20
2019,07,07,17,00,15.30
2019,07,07,17,01,15.30
2019,07,07,17,02,15.30
2019,07,07,17,03,15.30
2019,07,07,17,04,15.40
2019,07,07,17,05,15.40
2019,07,07,17,06,15.40
2019,07,07,17,07,15.40
2019,07,07,17,08,15.50
2019,07,07,17,09,15.50
2019,07,07,17,10,15.50
2019,07,07,17,11,15.50
2019,07,07,17,12,15.50
2019,07,07,17,13,15.60
2019,07,07,17,14,15.60
2019,07,07,17,15,15.60
2019,07,07,17,16,15.60
2019,07,07,17,17,15.60
2019,07,07,17,18,15.60
2019,07,07,17,19,15.70